Time,TemperatureF,DewpointF,PressureIn,WindDirection,WindDirectionDegrees,WindSpeedMPH,WindSpeedGustMPH,Humidity,HourlyPrecipIn,Conditions,Clouds,dailyrainin,SolarRadiationWatts/m^2,SoftwareType,DateUTC
2013-07-15 00:01:00,53.0,47.0,-100.00,SSE,162,0.0,2.0,81,0.00,,,0.00,1.000000,,2013-07-15 07:01:00,
2013-07-15 00:10:00,50.0,45.0,-100.00,SSE,161,0.0,0.0,84,0.00,,,0.00,1.000000,,2013-07-15 07:10:00,
2013-07-15 00:44:00,50.0,45.0,-100.00,SSE,161,0.0,0.0,84,0.00,,,0.00,1.000000,,2013-07-15 07:44:00,
2013-07-15 00:53:00,50.0,45.0,-100.00,SSE,161,0.0,0.0,84,0.00,,,0.00,1.000000,,2013-07-15 07:53:00,
2013-07-15 01:01:00,50.0,45.0,-100.00,SSE,161,0.0,0.0,84,0.00,,,0.00,1.000000,,2013-07-15 08:01:00,
2013-07-15 01:10:00,49.0,46.0,-100.00,SSE,161,0.0,0.0,88,0.00,,,0.00,1.000000,,2013-07-15 08:10:00,
2013-07-15 01:43:00,49.0,46.0,-100.00,SSE,161,0.0,0.0,88,0.00,,,0.00,1.000000,,2013-07-15 08:43:00,
2013-07-15 01:53:00,49.0,46.0,-100.00,SSE,161,0.0,0.0,88,0.00,,,0.00,1.000000,,2013-07-15 08:53:00,
2013-07-15 02:01:00,49.0,46.0,-100.00,SSE,161,0.0,0.0,88,0.00,,,0.00,1.000000,,2013-07-15 09:01:00,
2013-07-15 02:10:00,47.0,45.0,-100.00,SSE,161,0.0,1.0,92,0.00,,,0.00,1.000000,,2013-07-15 09:10:00,
2013-07-15 02:43:00,47.0,45.0,-100.00,SSE,161,0.0,1.0,92,0.00,,,0.00,1.000000,,2013-07-15 09:43:00,
2013-07-15 02:52:00,47.0,45.0,-100.00,SSE,161,0.0,1.0,92,0.00,,,0.00,1.000000,,2013-07-15 09:52:00,
2013-07-15 03:02:00,47.0,45.0,-100.00,SSE,161,0.0,1.0,92,0.00,,,0.00,1.000000,,2013-07-15 10:02:00,
2013-07-15 03:10:00,46.0,44.0,-100.00,SSE,161,0.0,1.0,93,0.00,,,0.00,1.000000,,2013-07-15 10:10:00,
2013-07-15 03:43:00,46.0,44.0,-100.00,SSE,161,0.0,1.0,93,0.00,,,0.00,1.000000,,2013-07-15 10:43:00,
2013-07-15 03:53:00,46.0,44.0,-100.00,SSE,161,0.0,1.0,93,0.00,,,0.00,1.000000,,2013-07-15 10:53:00,
2013-07-15 04:01:00,46.0,44.0,-100.00,SSE,161,0.0,1.0,93,0.00,,,0.00,1.000000,,2013-07-15 11:01:00,
2013-07-15 04:10:00,45.0,44.0,-100.00,SSE,161,1.0,2.0,95,0.00,,,0.00,1.000000,,2013-07-15 11:10:00,
2013-07-15 04:32:00,45.0,44.0,-100.00,SSE,161,1.0,2.0,95,0.00,,,0.00,1.000000,,2013-07-15 11:32:00,
2013-07-15 04:42:00,45.0,44.0,-100.00,SSE,161,1.0,2.0,95,0.00,,,0.00,1.000000,,2013-07-15 11:42:00,
2013-07-15 04:52:00,45.0,44.0,-100.00,SSE,161,1.0,2.0,95,0.00,,,0.00,1.000000,,2013-07-15 11:52:00,
2013-07-15 05:01:00,45.0,44.0,-100.00,SSE,161,1.0,2.0,95,0.00,,,0.00,1.000000,,2013-07-15 12:01:00,
2013-07-15 05:10:00,44.0,43.0,-100.00,SSE,161,0.0,0.0,95,0.00,,,0.00,1.000000,,2013-07-15 12:10:00,
2013-07-15 05:42:00,44.0,43.0,-100.00,SSE,161,0.0,0.0,95,0.00,,,0.00,1.000000,,2013-07-15 12:42:00,
2013-07-15 05:53:00,44.0,43.0,-100.00,SSE,161,0.0,0.0,95,0.00,,,0.00,1.000000,,2013-07-15 12:53:00,
2013-07-15 06:01:00,44.0,43.0,-100.00,SSE,161,0.0,0.0,95,0.00,,,0.00,1.000000,,2013-07-15 13:01:00,
2013-07-15 06:10:00,43.0,42.0,-100.00,SSE,161,0.0,0.0,96,0.00,,,0.00,6.000000,,2013-07-15 13:10:00,
2013-07-15 06:43:00,43.0,42.0,-100.00,SSE,161,0.0,0.0,96,0.00,,,0.00,6.000000,,2013-07-15 13:43:00,
2013-07-15 06:53:00,43.0,42.0,-100.00,SSE,161,0.0,0.0,96,0.00,,,0.00,6.000000,,2013-07-15 13:53:00,
2013-07-15 07:02:00,43.0,42.0,-100.00,SSE,161,0.0,0.0,96,0.00,,,0.00,6.000000,,2013-07-15 14:02:00,
2013-07-15 07:42:00,45.0,44.0,-100.00,SSE,161,0.0,2.0,95,0.00,,,0.00,22.000000,,2013-07-15 14:42:00,
2013-07-15 07:59:00,45.0,44.0,-100.00,SSE,161,0.0,2.0,95,0.00,,,0.00,22.000000,,2013-07-15 14:59:00,
2013-07-15 08:48:00,57.0,50.0,-100.00,SSE,161,0.0,2.0,78,0.00,,,0.00,192.000000,,2013-07-15 15:48:00,
2013-07-15 08:53:00,57.0,50.0,-100.00,SSE,161,0.0,2.0,78,0.00,,,0.00,192.000000,,2013-07-15 15:53:00,
2013-07-15 09:03:00,57.0,50.0,-100.00,SSE,161,0.0,2.0,78,0.00,,,0.00,192.000000,,2013-07-15 16:03:00,
2013-07-15 09:10:00,64.0,49.0,-100.00,SW,225,2.0,7.0,59,0.00,,,0.00,433.000000,,2013-07-15 16:10:00,
2013-07-15 09:48:00,64.0,49.0,-100.00,SW,225,2.0,7.0,59,0.00,,,0.00,433.000000,,2013-07-15 16:48:00,
2013-07-15 10:02:00,64.0,49.0,-100.00,SW,225,2.0,7.0,59,0.00,,,0.00,433.000000,,2013-07-15 17:02:00,
2013-07-15 10:10:00,67.0,49.0,-100.00,SSW,193,3.0,9.0,53,0.00,,,0.00,595.000000,,2013-07-15 17:10:00,
2013-07-15 10:50:00,67.0,49.0,-100.00,SSW,193,3.0,9.0,53,0.00,,,0.00,595.000000,,2013-07-15 17:50:00,
2013-07-15 10:58:00,67.0,49.0,-100.00,SSW,193,3.0,9.0,53,0.00,,,0.00,595.000000,,2013-07-15 17:58:00,
2013-07-15 11:03:00,67.0,49.0,-100.00,SSW,193,3.0,9.0,53,0.00,,,0.00,595.000000,,2013-07-15 18:03:00,
2013-07-15 11:10:00,70.0,50.0,-100.00,SSW,213,3.0,11.0,50,0.00,,,0.00,736.000000,,2013-07-15 18:10:00,
2013-07-15 11:45:00,70.0,50.0,-100.00,SSW,213,3.0,11.0,50,0.00,,,0.00,736.000000,,2013-07-15 18:45:00,
2013-07-15 11:58:00,70.0,50.0,-100.00,SSW,213,3.0,11.0,50,0.00,,,0.00,736.000000,,2013-07-15 18:58:00,
2013-07-15 12:10:00,73.0,51.0,-100.00,West,267,3.0,10.0,46,0.00,,,0.00,844.000000,,2013-07-15 19:10:00,
2013-07-15 12:48:00,73.0,51.0,-100.00,West,267,3.0,10.0,46,0.00,,,0.00,844.000000,,2013-07-15 19:48:00,
2013-07-15 12:56:00,73.0,51.0,-100.00,West,267,3.0,10.0,46,0.00,,,0.00,844.000000,,2013-07-15 19:56:00,
2013-07-15 13:03:00,73.0,51.0,-100.00,West,267,3.0,10.0,46,0.00,,,0.00,844.000000,,2013-07-15 20:03:00,
2013-07-15 13:10:00,75.0,51.0,-100.00,SSW,210,4.0,12.0,43,0.00,,,0.00,901.000000,,2013-07-15 20:10:00,
2013-07-15 13:43:00,75.0,51.0,-100.00,SSW,210,4.0,12.0,43,0.00,,,0.00,901.000000,,2013-07-15 20:43:00,
2013-07-15 13:56:00,75.0,51.0,-100.00,SSW,210,4.0,12.0,43,0.00,,,0.00,901.000000,,2013-07-15 20:56:00,
2013-07-15 14:02:00,75.0,51.0,-100.00,SSW,210,4.0,12.0,43,0.00,,,0.00,901.000000,,2013-07-15 21:02:00,
2013-07-15 14:10:00,76.0,51.0,-100.00,SSW,212,3.0,12.0,42,0.00,,,0.00,915.000000,,2013-07-15 21:10:00,
2013-07-15 14:48:00,76.0,51.0,-100.00,SSW,212,3.0,12.0,42,0.00,,,0.00,915.000000,,2013-07-15 21:48:00,
2013-07-15 14:58:00,76.0,51.0,-100.00,SSW,212,3.0,12.0,42,0.00,,,0.00,915.000000,,2013-07-15 21:58:00,
2013-07-15 15:10:00,78.0,51.0,-100.00,SSW,200,5.0,11.0,39,0.00,,,0.00,882.000000,,2013-07-15 22:10:00,
2013-07-15 15:43:00,78.0,51.0,-100.00,SSW,200,5.0,11.0,39,0.00,,,0.00,882.000000,,2013-07-15 22:43:00,
2013-07-15 15:54:00,78.0,51.0,-100.00,SSW,200,5.0,11.0,39,0.00,,,0.00,882.000000,,2013-07-15 22:54:00,
2013-07-15 16:03:00,78.0,51.0,-100.00,SSW,200,5.0,11.0,39,0.00,,,0.00,882.000000,,2013-07-15 23:03:00,
2013-07-15 16:10:00,79.0,50.0,-100.00,SW,223,3.0,11.0,37,0.00,,,0.00,799.000000,,2013-07-15 23:10:00,
2013-07-15 16:54:00,79.0,50.0,-100.00,SW,223,3.0,11.0,37,0.00,,,0.00,799.000000,,2013-07-15 23:54:00,
2013-07-15 17:03:00,79.0,50.0,-100.00,SW,223,3.0,11.0,37,0.00,,,0.00,799.000000,,2013-07-16 00:03:00,
2013-07-15 18:10:00,79.0,51.0,-100.00,SW,234,3.0,11.0,38,-99.99,,,0.00,512.000000,,2013-07-16 01:10:00,
2013-07-15 18:49:00,79.0,51.0,-100.00,SW,234,3.0,11.0,38,-99.99,,,0.00,512.000000,,2013-07-16 01:49:00,
2013-07-15 19:02:00,79.0,51.0,-100.00,SW,234,3.0,11.0,38,-99.99,,,0.00,512.000000,,2013-07-16 02:02:00,
2013-07-15 19:10:00,75.0,50.0,-100.00,West,264,2.0,8.0,41,0.00,,,0.00,302.000000,,2013-07-16 02:10:00,
2013-07-15 19:50:00,75.0,50.0,-100.00,West,264,2.0,8.0,41,0.00,,,0.00,302.000000,,2013-07-16 02:50:00,
2013-07-15 20:10:00,70.0,50.0,-100.00,SSW,206,2.0,5.0,49,0.00,,,0.00,40.000000,,2013-07-16 03:10:00,
2013-07-15 20:48:00,70.0,50.0,-100.00,SSW,206,2.0,5.0,49,0.00,,,0.00,40.000000,,2013-07-16 03:48:00,
2013-07-15 20:57:00,70.0,50.0,-100.00,SSW,206,2.0,5.0,49,0.00,,,0.00,40.000000,,2013-07-16 03:57:00,
2013-07-15 21:01:00,70.0,50.0,-100.00,SSW,206,2.0,5.0,49,0.00,,,0.00,40.000000,,2013-07-16 04:01:00,